User: anonymous
Location: Vancouver
(49.2500°N, 123.1330°W)
Time: 23:45:38
(UTC-07:00)
Language:

Vanguard 2 Rocket - Orbit

View from above orbital plane
View from above orbital plane
View from above satellite
View from above satellite

Ground track
Ground track

The orbit data is extracted from the following two-line orbital elements,

1 00012U 59001B   14244.05491174  .00000360  00000-0  21555-3 0  8993
2 00012 032.8974 192.4851 1671049 113.8626 264.5692 11.43357615280126
Epoch (UTC): 01 September 2014 01:19:04
Eccentricity: 0.1671049
inclination: 32.8974°
perigee height: 554 km
apogee height: 3335 km
right ascension of ascending node: 192.4851°
argument of perigee: 113.8626°
revolutions per day: 11.43357615
mean anomaly at epoch: 264.5692°
orbit number at epoch: 28012

The dashed part of the orbit path shows where the satellite is in the earth's shadow,  

DLR